User: anonymous   Login
Location: Unspecified
(0.0000°N, 0.0000°E)
Time: 13:28:18
(UTC+00:00)
Language:

NOAA 13 - Orbit

View from above orbital plane
View from above orbital plane
View from above satellite
View from above satellite

Ground track
Ground track

The orbit data is extracted from the following two-line orbital elements,

1 22739U 93050A   18015.58944979 -.00000015 +00000-0 +14065-4 0  9997
2 22739 098.5320 059.6708 0008470 289.0063 071.0192 14.12698522259189
Epoch (UTC): 15 January 2018 14:08:48
Eccentricity: 0.0008470
inclination: 98.5320°
perigee height: 844 km
apogee height: 856 km
right ascension of ascending node: 59.6708°
argument of perigee: 289.0063°
revolutions per day: 14.12698522
mean anomaly at epoch: 71.0192°
orbit number at epoch: 25918

The dashed part of the orbit path shows where the satellite is in the earth's shadow,  

DLR